Tracking 27423 objects as of 8-Jun-2023
HD Live streaming from Space Station
objects crossing your sky now

H-2A DEB

Track H-2A DEB now!
10-day predictions


NORAD ID: 38347
Int'l Code: 2012-025H
Perigee: 634.2 km
Apogee: 648.5 km
Inclination: 98.2 °
Period: 97.4 minutes
Semi major axis: 7012 km
RCS: 10.6734 m2 (large)
Launch date: May 17, 2012
Source: Japan (JPN)
Launch site: TANEGASHIMA SPACE CENTER (TNSTA)

Note: This is SATELLITE DEBRIS
Your satellite tracking list
Your tracking list is empty




NASA's NSSDC Master Catalog

Two Line Element Set (TLE):
1 38347U 12025H   23158.80027927  .00002947  00000-0  41117-3 0  9998
2 38347  98.1771 245.4238 0010138 108.7627 251.4684 14.78451901594662
Source of the keplerian elements: AFSPC